Regional Weather Roundup
Issued by NWS Jackson, KY

Home | Current Version | Previous Version | Text Only | Print | Product List | Glossary On
Versions: 1 2 3 4 5 6 7 8 9 10 11 12 13 14 15 16 17 18 19 20 21 22 23 24 25 26 27 28 29 30 31 32 33 34 35 36 37 38 39 40 41 42 43 44 45 46 47 48 49 50
000
ASUS43 KJKL 042110
RWRJKL

EAST KENTUCKY HOURLY WEATHER ROUNDUP
NATIONAL WEATHER SERVICE JACKSON KY
500 PM EDT TUE AUG 04 2015

NOTE: "FAIR" INDICATES FEW OR NO CLOUDS BELOW 12,000 FEET WITH
NO SIGNIFICANT WEATHER AND/OR OBSTRUCTIONS TO VISIBILITY.

* THESE REPORTS ARE NOT UNDER NWS QUALITY CONTROL AND MAY NOT
  REPORT WEATHER SUCH AS PRECIPITATION AND FOG.

KYZ079-080-083-085-087-088-110-112-115-119-120-042200
...EASTERN KENTUCKY...

CITY           SKY/WX    TMP DP  RH WIND       PRES   REMARKS
JACKSON        PTSUNNY   75  69  81 SE3       30.03S
LONDON         TSTM      81  65  58 SW12G29   30.01S
MONTICELLO*    MOSUNNY   92  73  53 SW9       30.01F HX 100
WILLIAMSBURG*  SUNNY     86  72  62 NW5       30.01S HX  92
MIDDLESBORO*   MOSUNNY   91  70  49 W5        30.00S HX  96
HAZARD APT*    PTCLDY    72  72 100 CALM      30.04R
BLACK MTN*       N/A     61  59  94 NW2         N/A
PIKEVILLE APT* TSTM      68  66  94 SW5       30.06R
BIG SANDY*     CLOUDY    78  68  71 SW14G25   30.03R
MOREHEAD APT*  MOCLDY    82  68  61 W9        30.01S
$$

KYZ035-036-041-042-044-050-067-078-099-042200
...CENTRAL KENTUCKY...

CITY           SKY/WX    TMP DP  RH WIND       PRES   REMARKS
MT STERLING*   MOSUNNY   86  72  62 NW9       30.00F HX  92
FLEMING/MASON* MOSUNNY   82  72  69 W10       29.99S
LEXINGTON      MOSUNNY   84  67  56 W9        29.99F
FRANKFORT      PTSUNNY   86  68  54 W7        29.97F
$$

KYZ091>093-OHZ055-061-077-WVZ005-015-034-035-042-042200
...SOUTHERN OHIO/WEST VIRGINIA...

CITY           SKY/WX    TMP DP  RH WIND       PRES   REMARKS
COVINGTON      CLOUDY    80  64  58 W12       29.98F
COLUMBUS       PTSUNNY   84  55  36 W9        29.95F
DAYTON         PTSUNNY   80  57  45 W12       29.99F
WILMINGTON     MOSUNNY   82  54  37 W14       29.98S
HUNTINGTON     PTSUNNY   83  68  60 W5        29.96S
CHARLESTON     PTSUNNY   85  65  51 SW12G17   29.96F
PINEVILLE*     PTSUNNY   85  71  63 MISG      30.08S
BECKLEY        PTSUNNY   80  63  55 W13G21    30.06S
BLUEFIELD      PTSUNNY   81  66  60 W8        30.10S
$$

VAZ002-007-008-TNZ017-027-036-066-071-042200
...SOUTHWEST VIRGINIA/EAST TENNESSEE...

CITY           SKY/WX    TMP DP  RH WIND       PRES   REMARKS
WISE*          DRIZZLE   75  64  69 W3        30.13R
ABINGDON*      PTSUNNY   85  62  45 W5        30.06S
BRISTOL        CLOUDY    90  66  45 W8        30.02S HX  92
OAK RIDGE      SUNNY     94  67  41 VRB3      30.00F HX  97
CROSSVILLE     SUNNY     89  65  44 VRB7      30.06F HX  91
NASHVILLE      PTSUNNY   95  65  37 SW7       29.97F HX  97
$$

...KEY TO REMARKS...
VSB - VISIBILITY IN MILES
WCI - WIND CHILL INDEX
HX  - HEAT INDEX

$$



USA.gov is the U.S. government's official web portal to all federal, state and local government web resources and services.